Location: Shipyard Acres
(38.2599°N, 122.2711°W)
Time: 03:59:14
(UTC+00:00)

Daily predictions for brighter satellites

Satellite Brightness Start Highest point End
(mag) Time Altitude Azimuth Time Altitude Azimuth Time Altitude Azimuth
Cosmos 1943 Rocket 2.8 02:57:32 10° NNW 03:03:01 61° WSW 03:08:30 10° S
BREEZE M DEB (TANK) 2.9 03:02:30 10° S 03:04:35 25° SE 03:08:06 10° ENE
Cosmos 1703 4.4 03:01:31 10° NNE 03:04:51 25° ENE 03:08:10 10° SE
Cosmos 1726 Rocket 4.3 03:00:58 10° SSE 03:04:54 33° E 03:08:53 10° NNE
Meteor 1-16 Rocket 4.2 03:00:14 10° S 03:05:31 58° E 03:10:58 10° NNE
Cosmos 1340 Rocket 4.1 03:03:11 10° SE 03:06:18 22° E 03:09:25 10° NE
Aureole 2 Rocket 4.0 03:03:14 10° NW 03:06:25 37° WSW 03:09:28 10° S
ARGOS Delta rocket 4.3 03:02:38 10° SSE 03:07:48 55° ENE 03:13:08 10° N
Cosmos 292 Rocket 4.5 03:05:10 10° NNW 03:09:54 59° WSW 03:14:38 10° S
IRIDIUM 104 4.4 03:05:31 10° N 03:10:40 55° E 03:15:45 10° SSE
USA 186 3.0 03:10:18 10° SE 03:13:00 24° ENE 03:15:37 10° NNE
FALCON 9 DEB 3.7 03:10:53 10° WSW 03:14:21 63° NW 03:17:50 10° NE
Cosmos 2228 3.2 03:10:17 10° SSE 03:14:26 51° E 03:18:39 10° NNE
ATLAS 2AS CENTAUR R/B 3.2 03:08:43 10° NNW 03:16:00 49° NE 03:22:39 10° SE
Aureole 1 Rocket 4.2 03:08:22 10° S 03:16:02 66° ESE 03:22:07 10° NNE
Cosmos 1825 Rocket 3.7 03:12:56 10° N 03:17:12 51° E 03:21:25 10° SSE
IRIDIUM 114 4.3 03:14:36 10° N 03:19:49 69° E 03:25:00 10° S
Cosmos 2369 Rocket 2.9 03:16:08 10° NNW 03:21:40 57° WSW 03:27:09 10° S
ATLAS 5 CENTAUR R/B 3.9 03:20:50 10° S 03:24:16 16° SE 03:29:38 11° ESE
Centaur AC-42 4.1 03:23:28 10° SSW 03:24:30 11° SSW 03:25:25 10° S
Resurs 01 Rocket 3.6 03:25:32 10° E 03:27:12 12° ENE 03:29:01 10° NE
Cosmos 407 Rocket 3.4 03:23:16 10° SSW 03:28:24 77° ESE 03:33:32 10° NNE
IRIDIUM 103 4.3 03:23:46 10° N 03:29:01 84° E 03:34:13 10° S
Cosmos 1758 Rocket 3.5 03:27:50 10° N 03:32:10 86° W 03:36:28 10° S
Cosmos 676 Rocket 4.4 03:27:37 10° S 03:32:30 40° ESE 03:37:23 10° NE
Cosmos 1953 4.3 03:31:10 10° SW 03:34:46 34° WNW 03:38:26 10° NNW
Cosmos 1606 Rocket 3.7 03:31:07 10° S 03:35:33 84° W 03:40:01 10° N
CZ-4 R/B 4.2 03:33:39 10° SW 03:36:20 18° W 03:39:02 10° NW
Abrixas rocket 4.1 03:36:03 10° NNW 03:38:11 18° NNE 03:40:02 11° ENE
Cosmos 1953 Rocket 3.6 03:36:04 10° N 03:40:33 64° E 03:44:59 10° SSE
Cosmos 1656 Rocket 3.7 03:35:47 10° NNW 03:41:26 85° WSW 03:46:57 10° SSE
MOS 1 Rocket 4.3 03:37:08 10° NNE 03:41:57 32° E 03:46:43 10° SSE
MONITOR-E 3.6 03:44:28 19° SSE 03:46:11 66° ENE 03:48:48 10° N
Cosmos 1023 Rocket 4.4 03:41:02 10° SSW 03:46:12 84° ESE 03:51:22 10° NNE
Meteor 2-17 Rocket 4.4 03:43:21 10° N 03:49:30 67° E 03:55:36 10° SSE
SPOT 3 Rocket 4.0 03:45:59 16° SE 03:49:46 42° ENE 03:54:38 10° N
MOS 1 4.2 03:44:17 10° SSE 03:49:54 77° ENE 03:55:35 10° N
GPS 2-04 Rocket1 3.7 03:48:40 10° SW 03:52:09 29° SSE 03:53:18 25° SE
Cosmos 1954 Rocket 4.0 03:48:38 10° S 03:53:48 61° ESE 03:58:56 10° NNE
Cosmos 2341 Rocket 4.5 03:47:57 10° N 03:53:57 41° ENE 03:58:07 19° SE
CZ-2C R/B 3.0 03:49:26 10° NNE 03:54:14 37° E 03:59:02 10° SSE
Cosmos 2184 Rocket 4.3 03:48:51 10° NNW 03:55:04 69° W 04:01:11 10° S
ARGOS 3.1 03:49:57 10° SSE 03:55:21 85° ENE 04:00:45 10° NNW
GEOS 3 Rocket 3.6 03:52:58 16° SE 03:57:05 89° SW 04:02:20 10° NW
Nadezhda 1 Rocket 4.3 03:59:19 10° SSW 04:05:41 70° W 04:12:02 10° N
Cosmos 962 Rocket 4.4 04:07:32 10° N 04:13:38 64° E 04:17:41 22° SSE
Cosmos 1300 2.5 04:12:13 23° S 04:14:27 71° E 04:18:16 10° NNE
STARLINK-1228 3.6 04:12:35 10° NW 04:15:11 39° NNE 04:15:11 39° NNE
SL-8 Rocket 4.4 04:10:07 10° N 04:16:09 44° ENE 04:18:34 31° SE
SJ-6B 3.3 04:12:56 14° S 04:16:22 62° W 04:20:28 10° NNW
Meteor 1-11 4.4 04:10:55 10° NNW 04:16:37 73° W 04:22:14 10° S
FREGAT/IRIS 4.5 04:14:39 12° SSW 04:16:40 26° W 04:19:02 10° NW
Cosmos 2181 Rocket 4.1 04:11:28 12° SSE 04:17:03 53° E 04:23:02 10° NNE
Cosmos 2154 Rocket 4.2 04:11:52 10° N 04:18:11 72° W 04:24:26 10° S
H-2A R/B 3.2 04:19:37 10° SSW 04:24:31 41° W 04:29:18 10° NNW
Resurs 1-3 3.5 04:25:51 44° SSE 04:27:12 79° ENE 04:31:36 10° N
STARLINK-1201 4.2 04:27:16 10° NNW 04:29:53 34° NNE 04:29:53 34° NNE
Cosmos 2366 rocket 4.3 04:24:38 10° N 04:30:29 44° ENE 04:31:44 39° ESE
ATLAS 5 CENTAUR R/B 4.1 04:27:27 10° W 04:30:43 22° NW 04:34:17 10° N
Hubble Space Telescope 2.6 04:30:32 10° SW 04:32:39 19° SSW 04:32:39 19° SSW
NOSS 3-4 (A) 4.3 04:27:46 10° NW 04:34:53 62° WSW 04:39:59 23° S
NOSS 3-4 (C) 4.3 04:27:52 10° NW 04:34:59 63° WSW 04:40:03 23° S
Spot 2 Rocket 4.1 04:43:10 40° ENE 04:43:10 40° ENE 04:47:44 10° N
Cosmos 1461 4.1 04:40:49 10° NW 04:45:10 42° WSW 04:46:32 33° SSW
Cosmos 1850 Rocket 3.8 04:44:50 51° S 04:46:04 72° ESE 04:51:14 10° NNE
COSMOS 2455 2.9 04:41:50 10° NNW 04:47:52 75° WSW 04:49:49 44° S
Cosmos 921 Rocket 4.0 04:45:38 10° NNW 04:49:35 41° W 04:50:42 33° SW
USA 234 3.1 04:51:28 10° NE 04:58:00 71° SE 05:04:31 10° SW
Cosmos 192 4.4 04:53:47 10° NNW 04:58:25 69° NE 04:58:25 69° NE
MetOp-B 4.0 04:59:00 69° E 04:59:05 69° ENE 05:04:25 10° N
Cosmos 2058 3.8 04:55:40 10° N 04:58:30 42° N 04:58:30 42° N
In-Cosmos 22 Rocket 4.1 04:55:05 10° N 05:00:58 87° E 05:01:46 68° SSE
Cosmos 220 Rocket 4.4 04:58:44 10° NNW 05:02:20 61° NNW 05:02:20 61° NNW
Resurs 01 Rocket 2.0 05:03:05 59° WSW 05:03:08 59° W 05:07:30 10° NNW
Cosmos 1833 Rocket 4.3 05:07:01 22° NE 05:07:01 22° NE 05:09:01 10° NE
Cosmos 468 Rocket 4.1 04:58:44 10° NNW 05:03:18 60° NE 05:03:18 60° NE
ERS-1 Rocket 4.4 05:06:57 27° NE 05:06:57 27° NE 05:09:52 10° N
ATLAS 2AS CENTAUR R/B 4.0 05:00:16 10° NW 05:06:38 33° WSW 05:10:22 20° SSW
Cosmos 1812 Rocket 4.1 05:07:49 56° WNW 05:07:49 56° WNW 05:11:54 10° N
USA 245 4.3 05:20:15 86° NE 05:20:15 86° NE 05:26:34 10° NNW
SL-08 R/B 4.4 05:15:14 10° N 05:21:08 76° NE 05:21:08 76° NE
COSMOS 2406 3.5 05:24:02 50° WSW 05:25:21 66° WNW 05:31:03 10° NNE
Cosmos 1697 Rocket 3.7 05:39:22 10° NNW 05:43:11 39° N 05:43:11 39° N
CZ-4C R/B 3.7 05:40:51 10° NNW 05:47:36 38° NE 05:47:43 38° NE
ATLAS CENTAUR R/B 4.5 05:59:11 10° NNW 05:59:16 10° NNW 05:59:16 10° NNW
Cosmos 1980 Rocket 3.8 06:09:50 10° NNW 06:12:39 29° N 06:12:39 29° N
Terra 4.2 06:23:08 20° NNW 06:23:08 20° NNW 06:24:37 10° NNW
USA 234 4.5 06:34:49 10° NNE 06:40:40 37° NNW 06:46:31 10° W
Cosmos 2082 Rocket 4.2 06:44:50 23° N 06:44:50 23° N 06:47:09 10° N
Cosmos 2344 4.4 07:08:40 10° NNW 07:18:36 86° NNW 07:18:36 86° NNW
CZ-4C R/B 4.3 07:29:08 10° NW 07:32:53 32° WNW 07:32:53 32° WNW
CZ-2D R/B 4.2 09:27:27 10° NNE 09:29:38 24° NNE 09:29:38 24° NNE
Cosmos 2237 Rocket 4.0 09:54:41 10° NNW 09:57:04 25° N 09:57:04 25° N
CENTAUR R/B 3.5 10:08:38 39° ENE 10:08:38 39° ENE 10:13:21 10° NE
NOSS 3-2 (A) 4.3 10:11:38 44° NNE 10:11:38 44° NNE 10:15:56 10° NNE
Cosmos 2297 Rocket 3.3 10:18:00 39° NNE 10:18:00 39° NNE 10:21:30 10° NNE
SL-16 R/B 3.8 10:19:11 30° NNW 10:19:11 30° NNW 10:22:13 10° NNW
ADEOS II 3.3 10:16:54 10° NNE 10:20:20 39° NE 10:20:20 39° NE
ARIANE 5 R/B 3.9 10:18:55 10° NNE 10:22:46 36° ENE 10:22:46 36° ENE
Cosmos 2219 4.4 10:31:05 34° NNW 10:31:05 34° NNW 10:34:42 10° N
Resurs 1-4 Rocket 3.8 10:33:33 10° N 10:35:53 23° NNW 10:35:53 23° NNW
Cosmos 2227 Rocket 3.1 10:44:24 42° NNW 10:44:24 42° NNW 10:48:25 10° NNE
NOSS 3-2 (C) 3.6 10:43:52 64° N 10:43:52 64° N 10:49:20 10° NNE
Meteor 1-18 Rocket 4.4 10:57:05 67° NNW 10:57:05 67° NNW 11:02:04 10° N
Okean 2 Rocket 4.2 11:02:40 10° N 11:06:59 43° E 11:07:54 38° ESE
ATLAS 3B R/B 2.6 11:05:55 60° S 11:07:02 72° ESE 11:13:39 10° NE
Cosmos 1818 4.4 11:04:08 10° NNW 11:09:26 49° NE 11:14:40 10° SE
CZ-2D R/B 4.1 11:08:39 10° NNW 11:10:58 17° NW 11:10:58 17° NW
USA 267 3.2 11:06:19 10° NE 11:12:53 82° SE 11:14:14 59° SSW
CZ-2D R/B 4.2 11:12:02 10° NNE 11:15:04 47° NNE 11:15:04 47° NNE
Cosmos 1867 3.9 11:19:47 52° SSE 11:20:44 60° ESE 11:26:07 10° NE
Cosmos 2082 4.2 11:22:09 44° WNW 11:22:09 44° WNW 11:27:29 10° N
SL-16 R/B 2.0 11:17:10 10° NNW 11:22:50 82° WSW 11:25:17 36° SSE
Cosmos 1125 Rocket 4.3 11:27:29 37° NW 11:27:29 37° NW 11:31:54 10° N
SAR-Lupe-4 4.1 11:32:34 58° NE 11:32:34 58° NE 11:35:47 10° N
CZ-2C R/B 4.4 11:28:43 10° NE 11:32:20 23° E 11:35:57 10° SSE
Cosmos 389 Rocket 4.3 11:36:38 22° NNW 11:36:38 22° NNW 11:38:10 10° N
ATLAS 5 CENTAUR R/B 3.2 11:33:09 10° NNW 11:38:56 54° NE 11:45:33 10° SE
Meteor 1-13 Rocket 4.2 11:38:24 33° S 11:41:05 86° E 11:46:45 10° N
Gbstr 26 Del rocket 3.9 11:39:47 42° SSW 11:42:00 73° SE 11:47:28 10° NE
STARLINK-43 4.0 11:42:17 34° NNW 11:43:35 54° NE 11:47:12 10° ESE
Meteor 1-4 Rocket 2.5 11:45:48 81° NW 11:45:48 81° NW 11:49:28 10° N
Cosmos 2263 Rocket 2.5 11:44:05 26° S 11:47:16 64° ESE 11:52:54 10° NNE
H-2A R/B 3.7 11:49:34 20° NW 11:49:34 20° NW 11:51:09 10° NNW
CZ-2C R/B 3.0 11:43:26 10° N 11:47:09 56° WNW 11:47:09 56° WNW
Okean 3 4.1 11:49:15 38° NW 11:49:15 38° NW 11:52:32 10° N
SAR-Lupe-1 3.9 11:49:24 81° SSW 11:49:34 86° W 11:53:10 10° NNW
Cosmos 1092 Rocket 4.2 11:47:21 10° S 11:53:34 75° E 11:59:52 10° N
